Regional Weather Roundup
Issued by NWS

Home | Current Version | Previous Version | Text Only | Print | Product List | Glossary Off
Versions: 1 2 3 4 5 6 7 8 9 10 11 12 13 14 15 16 17 18 19 20 21 22 23 24 25 26 27 28 29 30 31 32 33 34 35 36 37 38 39 40 41 42 43 44 45 46 47 48 49 50

000
ASUS43 KOAX 010010
RWRNE

WEATHER ROUNDUP FOR NEBRASKA
NATIONAL WEATHER SERVICE OMAHA NE
700 PM CDT TUE SEP 30 2014

NOTES: SATELLITE DATA IS BEING USED TO AUGMENT CLOUD COVER ABOVE
       12000 FEET.
       "FAIR" INDICATES FEW OR NO CLOUDS BELOW 12,000 FEET WITH NO
       SIGNIFICANT WEATHER AND/OR OBSTRUCTIONS TO VISIBILITY.

  * THESE STATIONS DO NOT REPORT WEATHER SUCH AS RAIN...SNOW OR FOG.

NEZ001>004-019>022-054>056-010100-
NEBRASKA PANHANDLE

CITY           SKY/WX    TMP DP  RH WIND       PRES   REMARKS
SCOTTSBLUFF    PTCLDY    66  42  41 W15       29.73R
6HR MIN TEMP:  65; 6HR MAX TEMP:  70; 6HR PCP: TRACE;

ALLIANCE       MOCLDY    64  40  41 W16G25    29.71S
6HR MIN TEMP:  61; 6HR MAX TEMP:  70;

CHADRON        PTCLDY    64  49  57 W3        29.65S
6HR MIN TEMP:  60; 6HR MAX TEMP:  70;

KIMBALL        MOCLDY    62  39  42 W10       29.78S
SIDNEY         LGT RAIN  65  39  38 W12       29.78R
6HR MIN TEMP:  65; 6HR MAX TEMP:  73; 6HR PCP: TRACE;

$$

NEZ057>060-069>072-079>082-010100-
SOUTHWEST NEBRASKA

CITY           SKY/WX    TMP DP  RH WIND       PRES   REMARKS
NORTH PLATTE   MOCLDY    69  45  41 S7        29.71R
6HR MIN TEMP:  69; 6HR MAX TEMP:  79;

IMPERIAL       PTCLDY    70  42  36 S8        29.74R
6HR MIN TEMP:  70; 6HR MAX TEMP:  76;

LEXINGTON      MOCLDY    70  47  43 S5        29.71S
MCCOOK         CLEAR     75  42  30 SE6       29.72S
6HR MIN TEMP:  74; 6HR MAX TEMP:  79;

OGALLALA       MOCLDY    69  42  37 CALM      29.72S
$$

NEZ005>010-023>029-035>040-094-010100-
NORTH CENTRAL NEBRASKA

CITY           SKY/WX    TMP DP  RH WIND       PRES   REMARKS
VALENTINE      CLEAR     70  43  37 W14G22    29.66R
6HR MIN TEMP:  66; 6HR MAX TEMP:  74;

AINSWORTH      CLEAR     68  43  40 W7        29.67R
BROKEN BOW     MOCLDY    73  46  38 S6        29.70R
6HR MIN TEMP:  73; 6HR MAX TEMP:  81;

O`NEILL        CLEAR     72  47  41 S5        29.67S
ORD            CLEAR     70  47  43 SW7       29.67S
6HR MIN TEMP:  70; 6HR MAX TEMP:  79;

THEDFORD       MOCLDY    71  43  36 W6        29.71R
$$

NEZ041-046>049-061>064-073>077-083>087-010100-
SOUTH CENTRAL NEBRASKA

CITY           SKY/WX    TMP DP  RH WIND       PRES   REMARKS
GRAND ISLAND   CLEAR     69  61  75 SE7       29.72S
6HR MIN TEMP:  69; 6HR MAX TEMP:  76;

AURORA         CLEAR     66  61  82 SE5       29.73S
HASTINGS       PTCLDY    70  58  65 SE7       29.72F
6HR MIN TEMP:  70; 6HR MAX TEMP:  74;

HEBRON         MOCLDY    66  63  89 SE5       29.73S
HOLDREGE       PTCLDY    71  55  55 CALM      29.71F
KEARNEY *      PTCLDY    72  55  56 SE10      29.72S
YORK           CLEAR     64  63  94 SE7       29.74S
$$

NEZ011>018-030>034-042>045-010100-
NORTHEAST NEBRASKA

CITY           SKY/WX    TMP DP  RH WIND       PRES   REMARKS
NORFOLK        CLEAR     66  61  84 SE13      29.72S
6HR MIN TEMP:  66; 6HR MAX TEMP:  72;

ALBION         CLEAR     67  60  75 SE8       29.71S
BLAIR          LGT RAIN  66  64  91 SE8       29.77S
COLUMBUS *     MOCLDY    64  61  88 SE8       29.75S
FREMONT        MOCLDY    66  63  89 SE10      29.77R
TEKAMAH        CLOUDY    67  63  87 S7        29.77R
6HR MIN TEMP:  65; 6HR MAX TEMP:  67; 6HR PCP:  0.64;

WAYNE          PTCLDY    66  63  88 S10       29.75S
$$

NEZ050>053-065>068-078-088>093-010100-
SOUTHEAST NEBRASKA

CITY           SKY/WX    TMP DP  RH WIND       PRES   REMARKS
LINCOLN        MOCLDY    64  61  90 S5        29.76S
6HR MIN TEMP:  63; 6HR MAX TEMP:  66; 6HR PCP:  1.24;

OMAHA EPPLEY   TSTM      66  63  90 SE10      29.78F FOG
6HR MIN TEMP:  66; 6HR MAX TEMP:  75; 6HR PCP:  0.80;

BEATRICE       MOCLDY    65  63  94 E8        29.75S
FALLS CITY     MOCLDY    69  64  84 E7        29.74F
6HR MIN TEMP:  69; 6HR MAX TEMP:  83; 6HR PCP: TRACE;

NEBRASKA CITY  HVY RAIN  65  65 100 NE8       29.79R
PLATTSMOUTH    LGT RAIN  64  63  94 CALM      29.79F
$$

NEZ044-045-051>053-067-010100-
OMAHA AREA

CITY           SKY/WX    TMP DP  RH WIND       PRES   REMARKS
OMAHA EPPLEY   TSTM      66  63  90 SE10      29.78F FOG
6HR MIN TEMP:  66; 6HR MAX TEMP:  75; 6HR PCP:  0.80;

BLAIR          LGT RAIN  66  64  91 SE8       29.77S
FREMONT        MOCLDY    66  63  89 SE10      29.77R
MILLARD        LGT RAIN  66  64  92 SE3       29.79S
OFFUTT AFB     LGT RAIN  64  64 100 E6        29.77F
PLATTSMOUTH    LGT RAIN  64  63  94 CALM      29.79F
WAHOO          MOCLDY    64  60  86 S9        29.77S
$$


USA.gov is the U.S. government's official web portal to all federal, state and local government web resources and services.